Location: Little Buffalo State Park
(40.4572°N, 77.1689°W)
Time: 08:14:57
(UTC-04:00)

ISS - Visible Passes

Search period start: 20 March 2019 00:00
Search period end: 30 March 2019 00:00
Orbit: 406 x 411 km, 51.6° (Epoch: 20 March)

Date Brightness Start Highest point End Pass type
(mag) Time Alt. Az. Time Alt. Az. Time Alt. Az.
20 Mar -3.2 20:52:43 10° SW 20:55:13 40° S 20:55:13 40° S visible
21 Mar -2.6 20:02:14 10° SSW 20:05:00 25° SE 20:07:18 13° E visible
21 Mar -1.5 21:38:21 10° W 21:40:05 25° WNW 21:40:05 25° WNW visible
22 Mar -3.5 20:47:06 10° WSW 20:50:22 64° NW 20:51:55 28° NE visible
23 Mar -3.8 19:56:04 10° SW 19:59:21 68° SE 20:02:37 10° ENE visible
23 Mar -1.5 21:33:35 10° WNW 21:36:11 21° NNW 21:36:19 21° NNW visible
24 Mar -2.0 20:42:00 10° W 20:44:58 30° NNW 20:47:44 11° NE visible
25 Mar -2.8 19:50:35 10° WSW 19:53:48 47° NNW 19:57:01 10° NE visible
25 Mar -1.1 21:29:01 10° NW 21:30:58 15° NNW 21:31:47 14° N visible
26 Mar -1.3 20:37:15 10° WNW 20:39:39 18° NNW 20:42:03 10° NNE visible
27 Mar -1.0 21:24:24 10° NNW 21:25:49 12° N 21:26:45 11° NNE visible
28 Mar -1.0 20:32:39 10° NW 20:34:25 14° N 20:36:09 10° NNE visible
28 Mar -0.4 22:10:17 10° NNW 22:10:28 11° NNW 22:10:28 11° NNW visible
29 Mar -1.1 21:19:12 10° NNW 21:20:38 12° N 21:21:25 12° NNE visible
